Погода в Недайводе

Украина / Днепропетровская область     48°08′38″N   33°21′56″E
темп.,
°C
ветер,
м/с
пор.,
м/с
влажн.,
%
обл.,
%
осадки,
мм/ч
давл.,
гПа
погр.,
м
19 апреля, пн
пн1900:00+10ссв2364100 0.0 101686
03:00+9ссв2371100 0.0 101695
06:00+7ссв3585100 0.0 1016115
09:00+9ссв2276100 0.0 1016413
12:00+12с1159100 0.1 10161155
15:00+13ссз2252100 0.3 10141395
18:00+12ссв356097 0.2 1014409
21:00+11ссв4765100 0.2 1014302
20 апреля, вт
вт2000:00+9св4869100 0.0 1012271
03:00+8св4873100 0.0 1010199
06:00+8ссв51075100 0.0 1008333
09:00+7ссв51086100 1.6 1007422
12:00+8с71190100 4.6 1004465
15:00+8с81291100 13.9 10021039
18:00+8сз91490100 3.6 1003774
21:00+8сз71386100 4.8 1005595
21 апреля, ср
ср2100:00+8зсз6118598 0.3 1007462
03:00+7з5108590 0.4 1009395
06:00+4з49915 0.0 1011210
09:00+9з57635 0.0 1013771
12:00+13з684867 0.0 10141896
15:00+13зюз5746100 0.0 10141854
18:00+13юз455198 0.0 10151609
21:00+9ююз357647 0.1 101774
22 апреля, чт
чт2200:00+7ююз488921 0.1 1017162
03:00+7ююз37925 0.1 1018123
06:00+6ююз359313 0.0 101987
09:00+12ююз46705 0.0 1019405
12:00+16ююз675035 0.3 10191577
15:00+17ююз5745100 0.5 10192142
18:00+16юз57545 0.0 10191145
21:00+11ююз487119 0.2 1020130
23 апреля, пт
пт2300:00+9ююз410825 0.0 1020216
03:00+8ю4108896 0.0 1020228
06:00+7ю4129049 0.1 1019281
09:00+12ю710673 0.1 1019564
12:00+17ююз89495 0.0 10181525
15:00+15юз81266100 2.9 10151316
18:00+9ссз6883100 7.8 1018613
21:00+6ссз5684100 8.4 1020485